Flag for Cuba Weather past 2 weeks in Holguín, Cuba

Now
72 °F

Light rain. Mostly cloudy.


Feels Like: 67 °F
Forecast: 71 / 83 °F
Wind: 1 mph from North

Location: Holguin Civ / Mil

Current Time: Oct 26, 2014 at 1:05:39 AM

Latest Report: Oct 25, 2014 at 11:50 PM


Visibility: 4 mi

Pressure: 29.86 "Hg

Humidity: 94%

Dew point: 70 °F

Location of HolguínLocation

Historic Weather in Holguín — Graph

°F

Holguín temperature yesterday

Maximum temperature yesterday: 90 °F (at 1:03 PM)
Minimum temperature yesterday: 72 °F (at 10:55 PM)
Average temperature yesterday: 77 °F

Past Weeks' High & Low Weather Summary

 TemperatureHumidityPressure
High91 °F (Oct 12, 2:51 PM)94% (Oct 11, 3:51 AM)30.01 "Hg (Oct 11, 3:51 AM)
Low68 °F (Oct 19, 6:02 PM)41% (Oct 12, 2:51 PM)29.77 "Hg (Oct 25, 2:51 PM)
Average78 °F78%29.92 "Hg
* Reported Oct 10 11:50 PM — Oct 25 11:50 PM, Holguín, Weather by CustomWeather, © 2014

Note: Actual official high and low records may vary slightly from our data, if they occured in-between our weather recording intervals... More about our weather records

Advertising

Holguín weather history for previous 24 hours

 ConditionsComfort  
Time TempWeatherWind HumidityBarometerVisibility
11:50 PM
Oct 25
72 °FLight rain. Mostly cloudy.1 mph94%29.86 "Hg4 mi
10:55 PM72 °FLight rain. Mostly cloudy.6 mph94%29.86 "Hg4 mi
9:50 PM73 °FLight rain. Mostly cloudy.7 mph89%N/A4 mi
8:50 PM73 °FRain. Mostly cloudy.12 mph89%29.89 "Hg4 mi
7:50 PM73 °FLight rain. Mostly cloudy.13 mph94%29.86 "Hg4 mi
6:55 PM75 °FLight rain. Mostly cloudy.5 mph89%N/A4 mi
5:52 PM75 °FThunderstorms. Mostly cloudy.8 mph89%29.80 "Hg4 mi
4:51 PM81 °FThundershowers. Partly sunny.6 mph74%29.77 "Hg5 mi
3:50 PM84 °FBroken clouds.8 mph66%29.77 "Hg5 mi
2:51 PM88 °FPartly sunny.9 mph59%29.77 "Hg6 mi
1:50 PM90 °FPartly sunny.9 mph55%29.80 "Hg6 mi
1:03 PM90 °FScattered clouds.7 mph55%29.83 "Hg6 mi
11:50 AM84 °FBroken clouds.6 mph66%29.86 "Hg6 mi
10:51 AM82 °FBroken clouds.6 mph74%29.86 "Hg6 mi
9:52 AM79 °FBroken clouds.3 mph79%29.89 "Hg6 mi
8:50 AM75 °FBroken clouds.3 mph89%29.86 "Hg5 mi
7:50 AM73 °FPartly cloudy.1 mph94%29.86 "Hg5 mi
5:51 AM73 °FFog.2 mph94%29.83 "Hg5 mi
4:51 AM73 °FFog.1 mph89%29.83 "Hg5 mi
3:52 AM73 °FFog.2 mph89%29.80 "Hg5 mi
2:52 AM73 °FPartly cloudy.2 mph89%29.83 "HgN/A
1:50 AM73 °FMostly cloudy.3 mph89%29.86 "HgN/A
Weather by CustomWeather, © 2014

See weather overviewHow to use our weather pages